Waarnemingen

Advertentie
Mijn weer
Biscarosse, Frankrijk (7503): temperatuur & dauwpunt: 18.02.2017 09:00:00 - 24.02.2017 09:00:00 (CET)Biscarosse, Frankrijk (7503): temperatuur 5cm: 18.02.2017 09:00:00 - 24.02.2017 09:00:00 (CET)Biscarosse, Frankrijk (7503): temperatuur -20cm & temperatuur -100cm: 18.02.2017 09:00:00 - 24.02.2017 09:00:00 (CET)Biscarosse, Frankrijk (7503): windsnelheid & windstoten: 18.02.2017 09:00:00 - 24.02.2017 09:00:00 (CET)Biscarosse, Frankrijk (7503): windrichting: 18.02.2017 09:00:00 - 24.02.2017 09:00:00 (CET)Biscarosse, Frankrijk (7503): luchtdruk: 18.02.2017 09:00:00 - 24.02.2017 09:00:00 (CET)Biscarosse, Frankrijk (7503): zicht: 18.02.2017 09:00:00 - 24.02.2017 09:00:00 (CET)Biscarosse, Frankrijk (7503): Zonneschijnduur: 18.02.2017 09:00:00 - 24.02.2017 09:00:00 (CET)Biscarosse, Frankrijk (7503): neerslag: 18.02.2017 09:00:00 - 24.02.2017 09:00:00 (CET)
Datum & Tijd tt [°C] td [°C] tt 5cm [°C] tt -20cm [°C] tt -100cm [°C] ff [km/u] ff [kn] fx [km/u] fx [kn] dd ppp [hPa] vv [km] sd [min] rr [mm]
24.02.2017 09:00:00 7,7 5,5 6,9 10,6 11,5 8 5 14 7 ONO 1020,6 15 0 0,0
24.02.2017 08:00:00 7,9 5,5 7,0 10,8 11,5 9 5 14 8 NNO 1019,7 15 0 0,0
24.02.2017 07:00:00 7,6 5,4 6,6 10,9 11,5 7 4 12 6 NO 1018,8 16 0 0,0
24.02.2017 06:00:00 8,0 5,3 6,7 11,1 11,5 7 4 25 14 NNO 1018,7 17 0 0,0
24.02.2017 05:00:00 7,9 5,9 7,1 11,2 11,5 9 5 15 8 NO 1018,0 18 0 0,0
24.02.2017 04:00:00 8,8 6,4 7,7 11,3 11,5 9 5 39 21 NNO 1018,0 17 0 0,0
24.02.2017 03:00:00 9,2 7,8 8,9 11,4 11,5 28 15 43 23 N 1017,9 10 0 0,0
24.02.2017 02:00:00 9,5 8,6 9,2 11,4 11,5 14 8 35 19 N 1017,7 3,9 0 0,6
24.02.2017 01:00:00 10,0 9,1 9,8 11,4 11,5 0 0 12 6 N 1017,4 3,6 0 0,0
24.02.2017 00:00:00 10,2 9,4 10,0 11,5 11,5 9 5 35 19 NNW 1017,2 3,0 0 0,2
23.02.2017 23:00:00 11,3 10,7 10,8 11,5 11,6 28 15 35 19 W 1016,8 3,8 0 0,2
23.02.2017 22:00:00 11,1 10,3 10,6 11,5 11,6 26 14 34 18 WZW 1016,9 6 0 0,0
23.02.2017 21:00:00 10,9 10,0 10,4 11,5 11,6 26 14 34 19 W 1016,9 10 0 0,0
23.02.2017 20:00:00 11,2 9,1 10,8 11,5 11,6 24 13 33 18 WZW 1016,5 16 0 0,0
23.02.2017 19:00:00 11,1 8,8 10,9 11,4 11,6 28 15 36 19 W 1015,9 20 0 0,0
23.02.2017 18:00:00 11,6 7,3 11,4 11,4 11,6 19 10 37 20 W 1015,6 20 0 0,0
23.02.2017 17:00:00 11,8 7,1 11,9 11,2 11,6 23 12 34 18 W 1015,5 20 0 0,0
23.02.2017 16:00:00 11,9 7,4 12,4 11,0 11,6 24 13 35 19 W 1015,4 19 0 0,0
23.02.2017 15:00:00 12,1 8,0 12,2 10,8 11,6 24 13 34 19 W 1015,6 16 0 0,0
23.02.2017 14:00:00 12,0 9,0 12,3 10,6 11,6 23 12 32 17 W 1016,1 14 0 0,0
23.02.2017 13:00:00 12,0 9,4 12,3 10,4 11,6 18 10 25 13 WZW 1016,3 12 0 0,0
23.02.2017 12:00:00 10,6 10,0 11,2 10,2 11,6 7 4 9 5 ZZW 1016,6 8 0 0,0
23.02.2017 11:00:00 9,9 9,4 9,2 10,1 11,6 4 2 9 5 ZW 1016,6 2,5 0 0,0
23.02.2017 10:00:00 7,9 7,5 6,5 10,2 11,6 0 0 5 3 N 1016,8 0,6 2 0,0
23.02.2017 09:00:00 5,7 5,3 4,9 10,3 11,6 2 1 9 5 ZZO 1016,3 0,2 0 0,0
23.02.2017 08:00:00 4,8 4,4 4,3 10,5 11,6 8 4 10 5 ZO 1015,6 0,3 0 0,0
23.02.2017 07:00:00 4,7 4,1 3,0 10,7 11,6 6 3 8 5 O 1015,4 0,4 0 0,0
23.02.2017 06:00:00 5,1 4,5 4,0 10,9 11,6 6 3 11 6 O 1015,5 3,2 0 0,0
23.02.2017 05:00:00 5,6 5,0 4,8 11,1 11,6 8 4 18 10 ONO 1015,8 2,3 0 0,0
23.02.2017 04:00:00 6,3 5,7 5,3 11,3 11,6 11 6 15 8 ONO 1016,3 1,1 0 0,2
23.02.2017 03:00:00 6,6 5,7 5,7 11,5 11,6 8 4 14 8 ONO 1017,1 10 0 0,0
23.02.2017 02:00:00 7,5 6,3 6,8 11,8 11,6 7 4 10 6 NO 1017,7 8 0 0,0
23.02.2017 01:00:00 8,1 6,9 6,5 12,0 11,6 3 1 11 6 NO 1018,2 19 0 0,0
23.02.2017 00:00:00 8,0 6,8 6,9 12,2 11,6 8 4 13 7 O 1018,5 20 0 0,0
22.02.2017 23:00:00 8,6 6,9 7,6 12,5 11,6 9 5 20 11 O 1019,1 20 0 0,0
22.02.2017 22:00:00 9,0 7,3 8,0 12,7 11,6 9 5 16 9 O 1019,6 20 0 0,0
22.02.2017 21:00:00 9,5 7,6 8,8 12,9 11,6 8 5 15 8 O 1020,0 20 0 0,0
22.02.2017 20:00:00 10,1 7,9 9,1 13,0 11,6 6 3 10 6 ONO 1020,4 20 0 0,0
22.02.2017 19:00:00 10,9 8,1 10,2 13,0 11,5 8 4 19 10 ONO 1020,4 20 11 0,0
22.02.2017 18:00:00 12,4 8,3 12,3 13,0 11,6 10 5 18 10 NO 1020,6 20 52 0,0
22.02.2017 17:00:00 13,9 8,7 15,3 12,8 11,5 12 6 19 10 NO 1020,8 20 37 0,0
22.02.2017 16:00:00 12,8 8,7 14,3 12,6 11,5 4 2 13 7 OZO 1021,5 20 0 0,0
22.02.2017 15:00:00 12,1 8,6 13,6 12,5 11,5 4 2 13 7 ONO 1022,3 18 0 0,0
22.02.2017 14:00:00 11,8 8,8 12,7 12,4 11,5 4 2 8 5 O 1023,0 18 0 0,0
22.02.2017 13:00:00 11,5 8,7 12,9 12,2 11,5 3 2 9 5 OZO 1024,1 18 0 0,0
22.02.2017 12:00:00 11,1 8,3 12,3 12,2 11,5 3 1 9 5 ZZO 1024,4 20 0 0,0
22.02.2017 11:00:00 11,0 9,7 11,4 12,1 11,5 4 2 10 6 O 1024,5 12 0 0,0
22.02.2017 10:00:00 10,6 9,7 10,4 12,1 11,5 6 3 10 5 ONO 1024,5 20 0 0,0
22.02.2017 09:00:00 10,2 9,4 9,8 12,2 11,5 3 1 6 3 O 1024,5 7 0 0,2
22.02.2017 08:00:00 9,9 9,1 9,8 12,3 11,5 3 2 5 3 O 1024,2 7 0 0,0
22.02.2017 07:00:00 9,9 9,1 9,8 12,4 11,4 5 3 8 4 ZO 1024,1 10 0 0,0
22.02.2017 06:00:00 10,1 9,2 10,0 12,5 11,5 3 2 6 3 OZO 1024,2 20 0 0,0
22.02.2017 05:00:00 10,5 9,4 10,3 12,5 11,4 4 2 6 3 ZO 1024,4 18 0 0,0
22.02.2017 04:00:00 10,6 9,7 10,4 12,6 11,4 2 1 7 4 O 1024,8 20 0 0,0
22.02.2017 03:00:00 10,8 9,9 10,5 12,7 11,4 4 2 13 7 NNO 1025,3 11 0 0,0
22.02.2017 02:00:00 10,9 9,8 10,5 12,8 11,4 6 4 15 8 N 1025,5 2,1 0 0,0
22.02.2017 01:00:00 11,0 9,6 10,8 12,9 11,4 7 4 10 6 N 1025,7 5 0 0,0
22.02.2017 00:00:00 11,1 9,7 11,0 13,0 11,4 3 2 9 5 NNO 1026,0 20 0 0,0
21.02.2017 23:00:00 11,3 10,0 11,0 13,0 11,4 4 2 6 3 N 1025,9 4,6 0 0,0
21.02.2017 22:00:00 11,5 10,1 11,1 13,2 11,4 4 2 8 4 NNW 1025,9 4,0 0 0,0
21.02.2017 21:00:00 11,7 10,1 11,3 13,3 11,4 7 4 10 5 NW 1025,7 5 0 0,0
21.02.2017 20:00:00 11,6 9,7 11,3 13,3 11,4 0 0 11 6 N 1025,9 11 0 0,0
21.02.2017 19:00:00 11,7 9,6 11,6 13,2 11,4 10 6 13 7 ZW 1025,8 14 0 0,0
21.02.2017 18:00:00 12,0 9,6 12,2 13,0 11,4 9 5 13 7 ZW 1026,0 13 0 0,0
21.02.2017 17:00:00 12,6 9,2 13,7 12,8 11,4 10 5 13 7 ZW 1025,9 20 0 0,0
21.02.2017 16:00:00 12,9 9,9 14,9 12,4 11,4 11 6 18 10 ZZW 1026,1 20 0 0,0
21.02.2017 15:00:00 13,2 9,4 15,6 12,0 11,4 14 8 19 10 ZZW 1026,5 20 1 0,0
21.02.2017 14:00:00 13,4 9,8 15,9 11,6 11,4 15 8 20 11 ZZW 1027,2 17 16 0,0
21.02.2017 13:00:00 13,0 9,6 14,1 11,3 11,4 13 7 17 9 ZZW 1027,9 12 7 0,0
21.02.2017 12:00:00 11,9 9,6 12,6 11,2 11,4 11 6 16 9 Z 1028,4 9 0 0,0
21.02.2017 11:00:00 11,1 9,7 10,7 11,1 11,4 9 5 14 7 ZZW 1028,4 9 0 0,0
21.02.2017 10:00:00 9,6 8,7 9,2 11,1 11,4 6 3 12 7 ZZO 1028,2 11 0 0,0
21.02.2017 09:00:00 8,8 8,0 8,6 11,1 11,3 7 4 11 6 ZZO 1028,0 10 0 0,0
21.02.2017 08:00:00 8,6 7,8 8,3 11,3 11,3 6 4 10 5 ZZO 1027,7 12 0 0,0
21.02.2017 07:00:00 8,6 7,8 8,4 11,4 11,3 7 4 11 6 ZZO 1027,3 7 0 0,0
21.02.2017 06:00:00 8,7 7,9 7,2 11,5 11,3 7 4 10 6 ZZO 1027,4 9 0 0,0
21.02.2017 05:00:00 8,2 7,3 7,1 11,8 11,3 9 5 12 7 ZZO 1027,5 12 0 0,0
21.02.2017 04:00:00 8,1 7,2 6,8 11,9 11,3 6 3 13 7 ZZO 1027,8 20 0 0,0
21.02.2017 03:00:00 8,3 7,4 6,3 12,2 11,3 7 4 10 5 ZZO 1028,2 17 0 0,2
21.02.2017 02:00:00 8,0 7,1 6,3 12,4 11,2 6 3 9 5 ZZO 1028,5 14 0 0,0
21.02.2017 01:00:00 8,0 6,9 6,0 12,7 11,2 6 3 7 4 ZZO 1028,7 14 0 0,0
21.02.2017 00:00:00 8,0 6,8 6,1 13,0 11,2 6 3 8 5 ZZO 1028,9 14 0 0,0
20.02.2017 23:00:00 8,6 7,4 6,5 13,3 11,2 4 2 6 4 ZO 1029,1 17 0 0,0
20.02.2017 22:00:00 9,0 7,6 7,2 13,6 11,2 4 2 5 3 ZO 1029,0 15 0 0,0
20.02.2017 21:00:00 8,8 7,1 7,5 13,8 11,2 4 2 5 3 ZO 1028,9 9 0 0,0
20.02.2017 20:00:00 9,6 6,9 7,8 13,9 11,2 0 0 9 5 N 1028,6 7 0 0,0
20.02.2017 19:00:00 10,7 6,8 9,1 14,0 11,2 9 5 10 6 WZW 1028,3 13 3 0,0
20.02.2017 18:00:00 12,0 6,5 11,6 13,8 11,2 9 5 14 7 W 1028,2 20 53 0,0
20.02.2017 17:00:00 13,9 6,0 15,2 13,4 11,2 6 3 11 6 W 1028,1 20 60 0,0
20.02.2017 16:00:00 14,2 5,8 20,7 12,8 11,1 9 5 14 8 WZW 1028,3 20 60 0,0
20.02.2017 15:00:00 15,1 6,9 21,9 12,3 11,1 10 5 12 6 WZW 1028,4 20 60 0,0
20.02.2017 14:00:00 15,4 5,3 21,6 11,8 11,1 5 3 9 5 ZW 1028,9 20 60 0,0
20.02.2017 13:00:00 14,0 7,3 17,2 11,5 11,1 6 3 9 5 ZW 1029,5 20 21 0,0
20.02.2017 12:00:00 13,1 8,0 13,5 11,3 11,1 8 4 10 5 ZZW 1029,7 12 4 0,0
20.02.2017 11:00:00 11,4 8,4 11,5 11,3 11,1 0 0 5 3 N 1029,6 15 0 0,0
20.02.2017 10:00:00 10,4 8,3 10,3 11,3 11,1 3 1 6 3 OZO 1029,4 12 0 0,0
20.02.2017 09:00:00 9,7 8,1 9,2 11,4 11,1 4 2 - - O 1029,4 12 0 0,0
20.02.2017 08:00:00 9,6 8,0 9,2 11,5 11,1 4 2 6 3 OZO 1028,7 12 0 0,0
20.02.2017 07:00:00 9,9 8,2 9,5 11,5 11,1 3 2 6 3 O 1028,6 15 0 0,0
20.02.2017 06:00:00 10,0 8,1 9,6 11,6 11,1 3 2 5 3 OZO 1028,5 15 0 0,0
20.02.2017 05:00:00 10,0 8,3 9,7 11,7 11,1 4 2 5 3 ZO 1028,3 12 0 0,0
20.02.2017 04:00:00 10,2 8,5 9,8 11,8 11,1 5 3 7 4 ZZO 1028,6 10 0 0,0
20.02.2017 03:00:00 10,5 8,3 10,0 11,9 11,1 0 0 7 4 N 1029,0 9 0 0,0
20.02.2017 02:00:00 11,2 8,6 10,8 11,9 11,1 7 4 12 7 NW 1029,2 6 0 0,0
20.02.2017 01:00:00 11,1 8,1 10,7 12,0 11,1 10 5 12 7 W 1029,3 7 0 0,0
20.02.2017 00:00:00 11,1 7,6 10,7 12,2 11,1 8 5 19 10 WNW 1029,2 6 0 0,0
19.02.2017 23:00:00 11,0 7,9 10,8 12,2 11,1 16 8 18 10 NW 1029,6 8 0 0,0
19.02.2017 22:00:00 11,0 8,9 10,6 12,3 11,1 10 6 15 8 NW 1029,3 6 0 0,0
19.02.2017 21:00:00 11,0 8,7 9,8 12,4 11,1 13 7 18 10 NW 1028,9 7 0 0,0
19.02.2017 20:00:00 11,2 8,6 10,9 12,5 11,1 17 9 23 12 WNW 1028,5 7 0 0,0
19.02.2017 19:00:00 11,1 9,2 10,1 12,5 11,1 15 8 17 9 WNW 1028,4 4,4 7 0,0
19.02.2017 18:00:00 11,1 8,8 11,0 12,3 11,1 13 7 15 8 NW 1028,2 4,8 9 0,0
19.02.2017 17:00:00 12,5 9,5 14,3 11,9 11,1 6 3 9 5 ZZW 1028,0 4,7 60 0,0
19.02.2017 16:00:00 12,4 9,8 15,4 11,5 11,1 6 4 10 6 ZZW 1028,1 6 41 0,0
19.02.2017 15:00:00 12,2 9,8 15,7 11,0 11,1 7 4 10 6 ZW 1028,4 3,4 21 0,0
19.02.2017 14:00:00 11,7 9,8 14,1 10,6 11,1 8 5 12 6 ZW 1028,5 3,5 3 0,0
19.02.2017 13:00:00 11,1 9,0 14,2 10,1 11,1 7 4 12 7 WZW 1029,1 2,7 14 0,0
19.02.2017 12:00:00 11,0 8,9 13,4 9,9 11,1 10 5 13 7 ZW 1029,1 6 35 0,0
19.02.2017 11:00:00 10,4 9,9 9,9 9,8 11,1 8 5 11 6 ZW 1028,9 4,5 15 0,0
19.02.2017 10:00:00 7,7 7,3 5,9 9,9 11,1 4 2 9 5 ZZO 1028,1 0,2 49 0,0
19.02.2017 09:00:00 5,5 4,9 3,0 10,1 11,1 7 4 9 5 ZO 1027,6 0,2 11 0,0
19.02.2017 08:00:00 4,7 3,7 2,8 10,3 11,0 7 4 8 5 ZO 1026,8 3,9 0 0,0
19.02.2017 07:00:00 5,5 4,1 3,3 10,6 11,1 3 2 5 3 OZO 1026,0 4,3 0 0,0
19.02.2017 06:00:00 6,7 5,5 3,7 10,8 11,0 3 2 6 3 OZO 1025,6 7 0 0,2
19.02.2017 05:00:00 6,4 5,2 4,1 11,1 11,0 5 3 6 4 ZO 1025,3 4,5 0 0,0
19.02.2017 04:00:00 6,5 4,7 3,9 11,3 11,0 0 0 4 2 N 1024,9 7 0 0,0
19.02.2017 03:00:00 7,5 5,3 5,6 11,6 11,0 0 0 10 5 N 1024,3 19 0 0,0
19.02.2017 02:00:00 8,3 5,8 5,4 11,9 11,0 11 6 15 8 ONO 1023,9 7 0 0,0
19.02.2017 01:00:00 7,3 4,8 5,5 12,2 11,0 7 4 11 6 O 1023,8 2,4 0 0,0
19.02.2017 00:00:00 7,7 5,5 5,7 12,4 11,0 4 2 5 3 NO 1023,5 20 0 0,0
18.02.2017 23:00:00 8,9 7,2 - - - 4 2 5 3 ONO 1023,2 18 - 0,0
18.02.2017 22:00:00 9,2 7,1 6,8 13,0 11,0 2 1 5 3 NNO 1022,9 20 0 0,0
18.02.2017 21:00:00 8,8 7,4 7,2 13,2 11,0 4 2 5 3 ZO 1022,3 11 0 0,0
18.02.2017 20:00:00 9,0 7,3 8,1 13,3 11,0 4 2 8 4 OZO 1021,8 7 0 0,0
18.02.2017 19:00:00 10,6 8,2 9,3 13,4 11,0 6 4 9 5 NNW 1021,5 4,8 0 0,0
18.02.2017 18:00:00 12,0 8,7 11,7 13,2 11,0 4 2 9 5 NW 1021,0 9 48 0,0
18.02.2017 17:00:00 12,8 8,1 14,1 12,8 11,0 8 4 9 5 W 1020,8 10 60 0,0
18.02.2017 16:00:00 13,7 7,5 18,9 12,3 11,0 7 4 11 6 W 1020,7 11 60 0,0
18.02.2017 15:00:00 15,7 7,7 20,2 11,6 11,0 5 3 11 6 W 1020,8 12 60 0,0
18.02.2017 14:00:00 13,8 7,8 19,9 11,0 10,9 9 5 16 9 W 1021,4 16 60 0,0
18.02.2017 13:00:00 17,0 7,3 20,4 10,5 11,0 5 3 9 5 NW 1021,8 20 60 0,0
18.02.2017 12:00:00 13,1 8,2 17,0 10,2 10,9 5 3 13 7 NW 1022,5 11 60 0,0
18.02.2017 11:00:00 12,4 6,9 13,1 10,2 10,9 5 3 9 5 WNW 1022,5 19 60 0,0
18.02.2017 10:00:00 10,0 5,8 9,1 10,4 10,9 4 2 13 7 OZO 1022,3 19 60 0,0
18.02.2017 09:00:00 8,1 5,2 6,8 10,5 10,9 9 5 14 8 O 1022,1 19 38 0,0

tt = temperatuur
td = dauwpunt
tt 5cm = temperatuur 5cm
tt -20cm = temperatuur -20cm
tt -100cm = temperatuur -100cm
ff = windsnelheid
fx = windstoten
dd = windrichting
ppp = luchtdruk
vv = zicht
sd = Zonneschijnduur
rr = neerslag

Weerstations in de omgeving